GW3755 Weather Reports


time (UTC)temp
F
wind
direction
speed
knots
gust
knots
rain 1hr
in
rain 24hr
in
rain mn
in
humidity
%
barometer
mb
20260506080105 64 150 0.9 5.2 0.00 0.00 0.00 78 1014.6
20260506073100 64 174 1.7 6.1 0.00 0.00 0.00 77 1014.4
20260506071601 65 244 1.7 8.7 0.00 0.00 0.00 76 1014.3
20260506061558 65 232 1.7 7.8 0.00 0.00 0.00 75 1014.6
20260506050104 65 0 0.9 7.8 0.00 0.00 0.00 70 1015.0
20260506044707 65 217 1.7 7.0 0.00 0.00 0.00 69 1014.8
20260506043110 65 184 0.9 6.1 0.00 0.00 0.00 67 1014.7
20260506041605 65 143 0.0 1.7 0.00 0.00 0.00 65 1014.6
20260506040058 66 0 0.0 1.7 0.00 0.00 0.00 62 1014.5
20260506034627 67 0 0.0 0.9 0.00 0.00 0.00 61 1014.3
20260506033104 67 0 0.0 1.7 0.00 0.00 0.00 60 1014.3
20260506031606 68 0 0.0 1.7 0.00 0.00 0.00 60 1014.5
20260506030059 68 159 0.0 1.7 0.00 0.00 0.00 59 1014.9
20260506024559 68 0 0.0 1.7 0.00 0.00 0.00 58 1014.8
20260506023111 68 177 0.0 1.7 0.00 0.00 0.00 58 1014.5
20260506021600 69 0 0.0 1.7 0.00 0.00 0.00 56 1014.6
20260506020058 69 0 0.0 2.6 0.00 0.00 0.00 56 1014.4
20260506014601 70 0 0.0 2.6 0.00 0.00 0.00 54 1014.8
20260506013059 71 0 0.0 1.7 0.00 0.00 0.00 54 1014.7
20260506011622 71 0 0.0 2.6 0.00 0.00 0.00 54 1014.6
20260506010104 71 0 0.0 0.9 0.00 0.00 0.00 53 1014.5
20260506004626 71 0 0.0 0.9 0.00 0.00 0.00 51 1014.5
20260506003113 72 196 0.0 1.7 0.00 0.00 0.00 50 1014.3
20260506001559 73 0 0.0 3.5 0.00 0.00 0.00 49 1014.3
20260506000101 73 245 0.0 3.5 0.00 0.00 0.00 48 1014.3
20260505234637 74 144 0.0 7.0 0.00 0.00 0.00 47 1014.2
20260505233121 75 178 0.9 5.2 0.00 0.00 0.00 46 1014.1
20260505231601 76 200 0.9 7.0 0.00 0.00 0.00 45 1014.0
20260505230106 77 203 0.9 6.1 0.00 0.00 0.00 44 1014.1
20260505224600 77 195 0.9 12.2 0.00 0.00 0.00 44 1014.2
20260505223058 77 198 1.7 8.7 0.00 0.00 0.00 44 1014.3
20260505221604 77 212 0.9 7.8 0.00 0.00 0.00 42 1014.3
20260505220106 78 200 1.7 8.7 0.00 0.00 0.00 41 1014.4
20260505214606 78 178 1.7 7.8 0.00 0.00 0.00 41 1014.2
20260505213105 79 150 2.6 6.1 0.00 0.00 0.00 40 1014.5
20260505211604 79 153 2.6 9.6 0.00 0.00 0.00 39 1014.5
20260505210059 79 288 0.9 4.3 0.00 0.00 0.00 39 1014.6
20260505204609 79 160 2.6 13.0 0.00 0.00 0.00 39 1014.5
20260505203101 78 0 1.7 7.8 0.00 0.00 0.00 38 1014.6
20260505201605 79 263 0.9 7.8 0.00 0.00 0.00 40 1014.7
20260505200104 79 304 1.7 7.8 0.00 0.00 0.00 39 1015.2
20260505194559 79 258 1.7 7.0 0.00 0.00 0.00 36 1015.6
20260505193101 79 186 2.6 9.6 0.00 0.00 0.00 38 1015.7
20260505191602 79 184 1.7 9.6 0.00 0.00 0.00 39 1015.9
20260505190111 78 144 2.6 7.0 0.00 0.00 0.00 38 1016.0
20260505184606 78 236 0.9 10.4 0.00 0.00 0.00 41 1016.2
20260505183100 79 255 1.7 7.0 0.00 0.00 0.00 41 1016.1
20260505181601 79 156 2.6 6.1 0.00 0.00 0.00 38 1016.7
20260505180104 79 0 1.7 7.0 0.00 0.00 0.00 38 1017.1
20260505174613 79 54 1.7 7.8 0.00 0.00 0.00 42 1017.3
20260505173108 78 0 0.9 5.2 0.00 0.00 0.00 43 1017.3
20260505171608 79 243 0.9 7.8 0.00 0.00 0.00 43 1017.0
20260505170139 78 196 0.9 5.2 0.00 0.00 0.00 43 1017.2
20260505164609 76 240 1.7 7.0 0.00 0.00 0.00 44 1017.3
20260505163109 77 232 0.9 6.1 0.00 0.00 0.00 48 1017.2
20260505161612 76 220 1.7 7.8 0.00 0.00 0.00 50 1017.4
20260505160113 76 203 0.0 6.1 0.00 0.00 0.00 54 1017.5
20260505153107 74 141 0.9 5.2 0.00 0.00 0.00 54 1017.7
20260505151559 73 221 1.7 4.3 0.00 0.00 0.00 58 1018.0
20260505124559 62 234 0.9 7.0 0.00 0.00 0.00 78 1017.5
20260505123115 61 202 0.9 4.3 0.00 0.00 0.00 78 1017.3
20260505120105 57 0 0.0 0.9 0.00 0.00 0.00 83 1017.0
20260505114615 55 0 0.0 0.9 0.00 0.00 0.00 85 1016.8
20260505113105 54 0 0.0 1.7 0.00 0.00 0.00 86 1017.0
20260505111608 53 0 0.0 0.9 0.00 0.00 0.00 86 1016.7
20260505101557 53 0 0.0 1.7 0.00 0.00 0.00 85 1016.5
20260505100058 52 0 0.0 0.9 0.00 0.00 0.00 85 1016.5
20260505094600 52 0 0.0 0.9 0.00 0.00 0.00 84 1016.4
20260505093059 53 0 0.0 0.0 0.00 0.00 0.00 82 1016.5
20260505091558 53 0 0.0 1.7 0.00 0.00 0.00 82 1016.3
20260505090100 54 0 0.0 1.7 0.00 0.00 0.00 80 1016.3
20260505084601 54 182 0.0 2.6 0.00 0.00 0.00 80 1016.3
20260505083118 54 210 0.0 0.9 0.00 0.00 0.00 79 1016.0
20260505081604 55 0 0.0 2.6 0.00 0.00 0.00 77 1016.1